Погода в Намибе

Ангола     15°11′51″S   12°08′56″E
темп.,
°C
ветер,
м/с
пор.,
м/с
влажн.,
%
обл.,
%
осадки,
мм/ч
давл.,
гПа
погр.,
м
13 мая, чт
чт1301:00+23ссз11530 0.0 101112
04:00+21сз11630 0.0 101111
07:00+22св11585 0.0 101211
10:00+30ссв33255 0.0 1012607
13:00+31сз54295 0.0 1010869
16:00+29сз55365 0.0 1009347
19:00+24сз35635 0.0 1011200
22:00+23зсз11690 0.0 101233
14 мая, пт
пт1401:00+23в11641 0.0 101211
04:00+23св12559 0.0 101111
07:00+24в224344 0.0 101215
10:00+31в23225 0.0 1012589
13:00+33з642390 0.0 10101498
16:00+29з55360 0.0 1009377
19:00+24зюз24550 0.0 1011170
22:00+23ююв11540 0.0 101315
15 мая, сб
сб1501:00+23вюв22420 0.0 101212
04:00+23ююв12380 0.0 101113
07:00+23юв22340 0.0 101215
10:00+31вюв23200 0.0 1012572
13:00+34зюз44200 0.0 10091543
16:00+28з55390 0.0 1009367
19:00+23юз24550 0.0 1011158
22:00+23всв11500 0.0 101319
16 мая, вс
вс1601:00+22з11524 0.0 101218
04:00+21зюз11521 0.0 101120
07:00+23юв12410 0.0 101217
10:00+31ююв02210 0.0 1013523
13:00+33з54233 0.0 10101212
16:00+28зюз553919 0.0 1009312
19:00+23юз245924 0.0 1011157
22:00+22ююв115345 0.0 101322
17 мая, пн
пн1701:00+23юв12454 0.0 101217
04:00+22ююв22440 0.0 101119
07:00+23юв22400 0.0 101219
10:00+30юз12250 0.0 1013492
13:00+32з64280 0.0 1011810
16:00+27зюз55430 0.0 1010331
19:00+22зюз33700 0.0 1012169
22:00+21юв11680 0.0 101444